FIN8ZR EPWA-EFHK

Flight info

Callsign FIN8ZR
Flight time N/A
Altitude 37000
Route BAMSO Z182 ASLUX DCT BULEP M857 UNPEG DCT BOKSU DCT GUNTA M857 SOKVA DCT ANAMA DCT KEMET DCT KEXLE DCT BEKNA DCT INTOR
Aircraft A320/M-SDE1E2E3FGIJ1M1RWXYZ/LB1

Departure

Time N/A
Airport Warsaw Chopin Airport (EPWA)

Arrival

Time 2026-05-03 21:54
Airport Helsinki Vantaa Airport (EFHK)
Time Latitude Longitude Altitude Speed Heading
2026-05-03 21:03 55.43475 23.43027 36956 ft 436 kts
2026-05-03 21:03 55.46454 23.44036 36954 ft 436 kts
2026-05-03 21:03 55.52411 23.46060 36951 ft 436 kts
2026-05-03 21:04 55.58329 23.48080 36948 ft 436 kts
2026-05-03 21:04 55.64298 23.50115 36942 ft 437 kts
2026-05-03 21:05 55.70266 23.52167 36949 ft 437 kts
2026-05-03 21:05 55.76237 23.54222 36944 ft 437 kts
2026-05-03 21:06 55.82213 23.56281 36941 ft 437 kts
2026-05-03 21:06 55.88189 23.58350 36933 ft 437 kts
2026-05-03 21:07 55.94164 23.60425 36952 ft 438 kts
2026-05-03 21:07 56.00144 23.62498 36931 ft 438 kts
2026-05-03 21:08 56.06126 23.64588 36923 ft 438 kts
2026-05-03 21:08 56.12106 23.66690 36916 ft 438 kts
2026-05-03 21:09 56.18090 23.68798 36920 ft 438 kts
2026-05-03 21:09 56.24073 23.70920 36916 ft 438 kts
2026-05-03 21:10 56.30061 23.73043 36901 ft 439 kts
2026-05-03 21:10 56.36051 23.75170 36903 ft 439 kts
2026-05-03 21:11 56.42040 23.77396 36889 ft 440 kts
2026-05-03 21:11 56.48018 23.79816 36895 ft 440 kts
2026-05-03 21:12 56.53952 23.82235 36887 ft 440 kts
2026-05-03 21:12 56.59933 23.84646 36899 ft 440 kts
2026-05-03 21:13 56.65929 23.86903 36899 ft 440 kts
2026-05-03 21:13 56.71945 23.89051 36914 ft 441 kts
2026-05-03 21:14 56.77961 23.91238 36918 ft 441 kts
2026-05-03 21:14 56.83973 23.93484 36910 ft 441 kts
2026-05-03 21:15 56.89989 23.95730 36905 ft 441 kts
2026-05-03 21:15 56.96007 23.97910 36891 ft 441 kts
2026-05-03 21:16 57.02038 23.99901 36912 ft 440 kts
2026-05-03 21:16 57.08071 24.01855 36905 ft 440 kts
2026-05-03 21:17 57.13081 24.03502 36898 ft 440 kts
2026-05-03 21:17 57.20128 24.05874 36895 ft 440 kts
2026-05-03 21:18 57.26156 24.07929 36893 ft 440 kts
2026-05-03 21:18 57.32143 24.09958 36916 ft 441 kts
2026-05-03 21:19 57.38175 24.12012 36900 ft 441 kts
2026-05-03 21:19 57.44209 24.14076 36903 ft 441 kts
2026-05-03 21:20 57.50242 24.16138 36901 ft 441 kts
2026-05-03 21:20 57.56276 24.18212 36934 ft 441 kts
2026-05-03 21:21 57.62318 24.20295 36907 ft 441 kts
2026-05-03 21:21 57.68360 24.22391 36901 ft 442 kts
2026-05-03 21:22 57.74407 24.24495 36901 ft 442 kts
2026-05-03 21:22 57.80453 24.26595 36899 ft 442 kts
2026-05-03 21:23 57.86499 24.28710 36921 ft 442 kts
2026-05-03 21:23 57.92550 24.30831 36911 ft 442 kts
2026-05-03 21:24 57.98598 24.32903 36906 ft 442 kts
2026-05-03 21:24 58.04651 24.34961 36903 ft 442 kts
2026-05-03 21:25 58.10656 24.37027 36896 ft 442 kts
2026-05-03 21:25 58.16696 24.39127 36902 ft 440 kts
2026-05-03 21:26 58.22723 24.41222 36894 ft 440 kts
2026-05-03 21:26 58.28745 24.43325 36888 ft 440 kts
2026-05-03 21:27 58.34769 24.45424 36887 ft 440 kts
2026-05-03 21:27 58.40790 24.47537 36911 ft 440 kts
2026-05-03 21:28 58.46795 24.49648 36887 ft 438 kts
2026-05-03 21:28 58.51780 24.51405 36882 ft 438 kts
2026-05-03 21:29 58.57770 24.53531 36881 ft 438 kts
2026-05-03 21:29 58.63751 24.55649 36890 ft 438 kts
2026-05-03 21:30 58.69745 24.57787 36899 ft 438 kts
2026-05-03 21:30 58.72742 24.58859 36702 ft 438 kts
2026-05-03 21:30 58.75731 24.59930 36435 ft 436 kts
2026-05-03 21:31 58.78715 24.61001 36174 ft 435 kts
2026-05-03 21:31 58.81690 24.62074 35916 ft 435 kts
2026-05-03 21:31 58.84658 24.63148 35654 ft 434 kts
2026-05-03 21:31 58.87631 24.64223 34896 ft 436 kts
2026-05-03 21:32 58.90613 24.65297 34304 ft 433 kts
2026-05-03 21:32 58.93557 24.66362 33773 ft 429 kts
2026-05-03 21:32 58.96475 24.67417 33196 ft 424 kts
2026-05-03 21:32 58.99359 24.68465 32674 ft 420 kts
2026-05-03 21:33 59.02212 24.69502 32154 ft 415 kts
2026-05-03 21:33 59.05042 24.70533 31645 ft 412 kts
2026-05-03 21:33 59.07847 24.71559 31123 ft 408 kts
2026-05-03 21:33 59.10630 24.72580 30619 ft 405 kts
2026-05-03 21:34 59.13390 24.73593 30123 ft 403 kts
2026-05-03 21:34 59.16134 24.74599 29591 ft 400 kts
2026-05-03 21:34 59.18854 24.75598 29114 ft 395 kts
2026-05-03 21:34 59.21542 24.76589 28636 ft 391 kts
2026-05-03 21:35 59.24205 24.77573 28182 ft 388 kts
2026-05-03 21:35 59.26844 24.78547 27732 ft 384 kts
2026-05-03 21:35 59.29459 24.79509 27291 ft 381 kts
2026-05-03 21:35 59.32016 24.80451 26866 ft 377 kts
2026-05-03 21:36 59.34585 24.81402 26441 ft 374 kts
2026-05-03 21:36 59.37132 24.82344 26025 ft 371 kts
2026-05-03 21:36 59.39655 24.83283 25609 ft 368 kts
2026-05-03 21:36 59.42142 24.84659 25178 ft 375 kts 12°
2026-05-03 21:37 59.44558 24.86642 24742 ft 376 kts 14°
2026-05-03 21:37 59.46963 24.88642 24295 ft 374 kts 14°
2026-05-03 21:37 59.49357 24.90632 23841 ft 373 kts 14°
2026-05-03 21:37 59.51750 24.92617 23384 ft 373 kts 14°
2026-05-03 21:38 59.54135 24.94594 22912 ft 371 kts 14°
2026-05-03 21:38 59.56509 24.96570 22442 ft 369 kts 14°
2026-05-03 21:38 59.58869 24.98540 21997 ft 367 kts 14°
2026-05-03 21:38 59.61215 25.00504 21554 ft 366 kts 14°
2026-05-03 21:39 59.63551 25.02462 21117 ft 364 kts 14°
2026-05-03 21:39 59.65878 25.04406 20677 ft 362 kts 14°
2026-05-03 21:39 59.68195 25.06343 20244 ft 361 kts 14°
2026-05-03 21:39 59.70507 25.08284 19810 ft 360 kts 15°
2026-05-03 21:40 59.72812 25.10229 19377 ft 360 kts 15°
2026-05-03 21:40 59.75110 25.12171 18948 ft 359 kts 15°
2026-05-03 21:40 59.77408 25.14110 18519 ft 359 kts 15°
2026-05-03 21:40 59.79705 25.16050 18084 ft 358 kts 15°
2026-05-03 21:41 59.81995 25.17993 17636 ft 358 kts 16°
2026-05-03 21:41 59.84277 25.19933 17285 ft 354 kts 16°
2026-05-03 21:41 59.86502 25.21836 17115 ft 344 kts 16°
2026-05-03 21:41 59.88689 25.23706 16806 ft 340 kts 16°
2026-05-03 21:42 59.90825 25.25527 16456 ft 337 kts 16°
2026-05-03 21:42 59.92974 25.27356 16097 ft 335 kts 16°
2026-05-03 21:42 59.95116 25.29167 15742 ft 333 kts 14°
2026-05-03 21:42 59.97306 25.30368 15394 ft 322 kts
2026-05-03 21:43 59.99502 25.30593 15039 ft 311 kts 348°
2026-05-03 21:43 60.01604 25.29921 14693 ft 302 kts 338°
2026-05-03 21:43 60.03642 25.28878 14327 ft 302 kts 338°
2026-05-03 21:43 60.05677 25.27848 13977 ft 301 kts 339°
2026-05-03 21:44 60.07708 25.26828 13633 ft 301 kts 339°
2026-05-03 21:44 60.09732 25.25806 13259 ft 299 kts 339°
2026-05-03 21:44 60.11746 25.24785 12905 ft 298 kts 339°
2026-05-03 21:44 60.13750 25.23773 12531 ft 297 kts 339°
2026-05-03 21:45 60.15747 25.22768 12167 ft 295 kts 339°
2026-05-03 21:45 60.17732 25.21763 11807 ft 294 kts 340°
2026-05-03 21:45 60.19709 25.20759 11449 ft 292 kts 340°
2026-05-03 21:45 60.21665 25.19767 10920 ft 288 kts 340°
2026-05-03 21:46 60.23602 25.18783 10288 ft 286 kts 340°
2026-05-03 21:46 60.25524 25.17803 9650 ft 284 kts 341°
2026-05-03 21:46 60.27433 25.16831 8961 ft 282 kts 341°
2026-05-03 21:46 60.29323 25.15868 8282 ft 279 kts 341°
2026-05-03 21:47 60.31197 25.14917 7624 ft 276 kts 342°
2026-05-03 21:47 60.33059 25.13969 7085 ft 276 kts 342°
2026-05-03 21:47 60.34915 25.13013 6735 ft 273 kts 341°
2026-05-03 21:47 60.36634 25.11582 6461 ft 263 kts 329°
2026-05-03 21:48 60.38250 25.09916 6188 ft 258 kts 330°
2026-05-03 21:48 60.39809 25.08319 5904 ft 252 kts 330°
2026-05-03 21:48 60.41356 25.06737 5619 ft 246 kts 330°
2026-05-03 21:48 60.42868 25.05186 5336 ft 241 kts 330°
2026-05-03 21:49 60.44351 25.03668 5060 ft 236 kts 330°
2026-05-03 21:49 60.45805 25.02179 4781 ft 232 kts 330°
2026-05-03 21:49 60.47214 25.00658 4500 ft 226 kts 322°
2026-05-03 21:49 60.48192 24.98297 4227 ft 218 kts 291°
2026-05-03 21:50 60.48422 24.95338 3938 ft 213 kts 262°
2026-05-03 21:50 60.47930 24.92550 3650 ft 210 kts 244°
2026-05-03 21:50 60.47269 24.89922 3375 ft 209 kts 243°
2026-05-03 21:50 60.46603 24.87309 3101 ft 208 kts 240°
2026-05-03 21:51 60.45569 24.85341 2820 ft 208 kts 203°
2026-05-03 21:51 60.44161 24.85101 2612 ft 206 kts 166°
2026-05-03 21:51 60.42867 24.86268 2410 ft 201 kts 154°
2026-05-03 21:51 60.41643 24.87560 2117 ft 197 kts 154°
2026-05-03 21:52 60.40456 24.88797 1845 ft 186 kts 154°
2026-05-03 21:52 60.39343 24.89948 1600 ft 174 kts 153°
2026-05-03 21:52 60.38306 24.91017 1383 ft 160 kts 153°
2026-05-03 21:52 60.37355 24.91996 1169 ft 149 kts 153°
2026-05-03 21:53 60.36443 24.92935 964 ft 144 kts 153°
2026-05-03 21:53 60.35555 24.93848 769 ft 142 kts 153°
2026-05-03 21:53 60.34673 24.94758 580 ft 143 kts 153°
2026-05-03 21:53 60.33790 24.95672 384 ft 142 kts 154°
2026-05-03 21:54 60.32910 24.96573 202 ft 142 kts 154°
2026-05-03 21:54 60.32126 24.97376 155 ft 104 kts 153°
2026-05-03 21:54 60.31684 24.97829 152 ft 44 kts 153°
2026-05-03 21:54 60.31528 24.97982 153 ft 16 kts 162°
2026-05-03 21:55 60.31450 24.97954 154 ft 9 kts 216°
2026-05-03 21:55 60.31417 24.97871 155 ft 6 kts 242°
2026-05-03 21:55 60.31414 24.97789 156 ft 6 kts 290°
2026-05-03 21:55 60.31438 24.97743 156 ft 4 kts 329°
2026-05-03 21:56 60.31477 24.97703 156 ft 8 kts 334°
2026-05-03 21:56 60.31528 24.97652 156 ft 10 kts 333°
2026-05-03 21:56 60.31586 24.97592 156 ft 9 kts 333°
2026-05-03 21:56 60.31625 24.97547 158 ft 5 kts 321°
2026-05-03 21:57 60.31634 24.97484 161 ft 5 kts 266°
2026-05-03 21:57 60.31636 24.97409 165 ft 5 kts 292°
2026-05-03 21:57 60.31671 24.97353 166 ft 7 kts 332°
2026-05-03 21:57 60.31727 24.97295 166 ft 10 kts 333°
2026-05-03 21:58 60.31794 24.97225 166 ft 11 kts 333°
2026-05-03 21:58 60.31850 24.97157 166 ft 4 kts 302°
2026-05-03 21:58 60.31843 24.97112 166 ft 3 kts 240°
2026-05-03 21:58 60.31831 24.97070 166 ft 4 kts 242°
2026-05-03 21:59 60.31823 24.97038 166 ft 1 kts 243°